SCP
0 0 0 0 0 0 0 0 0 -0 -0 -0 -0 0 0 0 0 0 0 0 0 0 0 0 0 0 0 0 0 0 0 0 0 0 0 0 0 0
0 0 0 0 0 0 0 0 0 0 0 0 0 0 0 -0 -0 -0 0 0 0 0 0 0 0 0 0 0 0 0 0 0 0 0 0 0 0 0
0 0 0 0 0 0 0 0 0 0 0 0 0 0 0 0 -0 -0 -0 0 0 0 0 0 0 0 0 0 0 0 0 0 0 0 0 0 0 0
0 0 0 0 0 0 0 0 0 0 0 0 0 0 0 0 0 -0 -0 -0 0 0 0 0 0 0 0 0 0 0 0 0 0 0 0 0 0 0
0 0 0 0 -0 0 0 0 0 0 0 0 0 0 0 0 0 0 0 -0 -0 -0 0 0 0 0 0 0 0 0 0 0 0 0 0 0 0 0
0 0 0 0 0 0 0 0 0 0 0 0 0 0 0 0 0 -0 0 0 -0 0 -0 0 0 0 0 0 0 0 0 0 0 0 0 0 0 0
0 0 0 0 0 0 0 0 0 0 0 0 0 0 0 0 0 0 0 0 0 0 -0 -0 0 0 0 0 0 0 0 0 0 0 0 0 0 0
0 0 0 0 0 0 0 0 0 0 0 0 0 0 0 0 0 0 0 0 0 0 0 0 0 0 0 0 0 0 0 0 0 0 0 0 0 0
0 0 0 0 0 0 0 0 0 0 0 0 0 0 0 0 0 0 0 0 0 0 0 0 0 0 0 0 0 0 0 0 0 0 0 0 0 0
0 0 0 0 0 0 0 0 0 0 0 0 0 0 0 0 0 0 0 0 0 0 0 0 0 0 0 0 0 0 0 0 0 0 0 0 0 0
0 0 0 0 0 0 0 0 0 0 0 0 0 0 0 0 0 0 0 0 0 0 0 0 0 0 0 0 0 0 0 0 0 0 0 0 0 0
0 0 0 0 0 0 0 0 0 0 0 0 0 0 0 0 0 0 0 0 0 0 0 0 0 0 -0 -0 0 0 0 0 0 0 0 0 0 0
0 0 0 0 0 0 0 0 0 0 0 0 0 0 0 0 0 0 0 0 0 0 0 0 0 0 0 -0 -0 -0 0 0 0 0 0 0 0 0
0 0 0 0 0 0 0 0 0 0 0 0 0 0 0 0 0 0 0 0 0 0 0 0 0 0 0 0 -0 -0 -0 0 0 0 0 0 0 0
0 0 0 0 0 0 0 0 0 0 0 0 0 0 0 0 0 0 0 0 0 0 0 0 0 0 0 0 0 -0 -0 0 0 0 0 0 0 0
0 0 0 0 0 0 0 0 0 0 0 0 0 0 0 0 0 0 0 0 0 0 0 0 0 0 0 0 0 0 0 0 0 0 0 0 0 0
0 0 0 0 0 0 0 0 0 0 0 0 0 0 0 0 0 0 0 0 0 0 0 0 0 0 0 0 0 0 0 0 0 0 0 0 0 0
0 0 0 0 0 0 0 0 0 0 0 0 0 0 0 0 0 0 0 0 0 0 0 0 0 0 0 0 0 0 0 0 0 0 0 0 0 0
0 0 0 0 0 0 0 0 0 0 0 0 0 0 0 0 0 0 0 0 0 0 0 0 0 0 0 0 0 0 0 0 0 0 0 0 0 0
0 0 0 0 0 0 0 0 0 0 0 0 0 0 0 0 0 0 0 0 0 0 0 0 0 0 0 0 0 0 0 0 0 0 0 0 0 0
0 0 0 0 0 0 0 0 0 0 0 0 0 0 0 0 0 0 0 0 0 0 0 0 0 0 0 0 0 0 0 0 0 0 0 0 0 0
0 0 0 0 0 0 0 0 0 0 0 0 0 0 0 0 0 0 0 0 0 0 0 0 0 0 0 0 0 0 0 0 0 0 0 0 0 0
0 0 0 0 0 0 0 0 0 0 0 0 0 0 0 0 0 0 0 0 0 0 0 0 0 0 0 0 0 0 0 0 0 0 0 0 0 0
Wind_Speed_500mb
50 57 62 62 60 57 55 53 46 60 70 58 54 42 64 83 92 84 77 71 68 63 59 62 71 72 72 69 67 74 76 79 72 67 63 59 57 56
52 57 62 64 66 65 61 58 53 50 69 58 81 83 87 93 97 94 88 83 77 74 69 64 62 70 75 75 71 69 72 78 76 71 63 64 61 59
55 59 62 63 65 67 67 65 60 49 61 87 68 77 89 89 90 89 92 89 87 82 78 75 72 66 68 77 78 74 70 81 79 76 70 67 67 62
61 65 67 67 68 68 68 68 65 58 58 79 82 65 65 78 85 84 86 86 88 86 82 80 81 77 71 67 77 82 80 79 82 81 78 76 71 69
64 67 70 71 72 69 68 69 66 63 58 65 91 69 66 64 77 78 80 83 82 88 84 83 81 83 81 76 71 76 86 88 83 83 85 85 80 77
65 68 70 70 72 74 74 68 62 58 56 62 75 78 64 58 56 64 74 59 63 57 63 78 80 78 82 83 81 76 73 87 92 89 84 83 84 83
66 68 70 72 74 71 65 61 55 58 59 65 73 74 66 58 54 61 70 73 75 65 59 49 57 61 60 74 80 80 77 73 82 93 94 88 83 84
68 70 71 70 67 65 60 50 50 57 63 67 72 70 68 62 60 61 66 72 84 59 54 71 54 64 62 69 69 71 69 69 71 79 88 95 93 86
67 69 71 66 64 59 55 51 49 48 51 59 70 69 71 59 58 62 62 64 73 70 63 86 64 75 83 92 89 82 82 79 73 67 75 87 92 94
66 67 67 64 58 53 55 61 68 63 63 61 63 67 65 65 63 69 74 75 74 72 62 87 66 74 65 63 62 70 86 87 80 79 74 73 83 91
65 65 62 59 53 55 65 72 73 77 80 80 72 71 71 70 68 72 79 74 77 72 63 68 71 75 68 75 74 72 64 70 82 86 83 77 76 83
60 59 52 52 55 58 64 73 84 66 60 70 74 70 65 59 59 60 64 76 79 80 60 50 53 62 73 62 33 40 55 59 61 68 79 85 76 73
52 52 51 52 55 61 63 73 80 77 74 73 72 73 70 64 67 65 62 65 75 83 73 60 66 65 67 91 82 64 63 52 56 54 54 72 85 75
49 50 52 53 66 65 67 65 60 60 65 62 62 62 56 53 51 53 55 61 70 82 80 69 77 75 79 90 92 73 73 61 66 81 86 78 61 75
44 48 62 70 65 63 60 59 60 55 50 49 50 54 53 58 60 64 64 60 63 66 68 64 66 70 81 91 93 85 79 73 74 66 79 66 70 71
53 68 67 60 57 56 54 51 50 48 46 45 44 49 53 55 57 58 56 55 54 58 52 59 64 66 77 83 85 89 81 75 60 65 73 70 66 68
55 61 56 55 56 53 50 49 49 49 46 43 45 49 50 51 53 52 50 49 55 63 68 68 69 66 69 74 88 86 87 78 79 65 68 67 71 69
57 53 51 50 51 52 52 53 51 51 51 52 50 47 49 51 53 54 48 53 56 63 72 74 72 68 71 76 71 83 87 85 75 66 64 72 70 63
44 44 46 46 48 49 50 52 54 53 54 54 56 54 50 52 54 54 54 50 57 60 68 69 64 63 66 69 81 59 71 61 62 78 67 75 85 70
39 41 44 44 45 48 49 51 52 52 53 56 59 59 52 53 58 59 59 56 54 60 69 67 66 64 64 71 77 74 55 50 55 67 65 72 73 63
40 41 42 45 47 48 48 51 52 51 52 56 60 63 54 53 62 59 59 59 58 60 61 65 69 64 64 64 63 63 44 43 43 54 63 63 60 56
44 46 47 48 49 50 49 51 52 49 51 53 59 63 59 58 60 59 58 59 59 59 62 62 58 56 53 44 43 37 37 29 39 50 55 57 42 39
46 48 50 50 49 50 48 51 51 48 48 51 58 62 61 64 61 57 55 54 54 56 54 55 51 39 36 35 34 32 25 17 18 25 36 39 42 39
Wind_Direction_500mb
333 332 330 327 322 316 310 304 298 299 299 299 292 292 289 290 292 294 291 289 288 287 285 275 265 259 257 255 253 252 244 246 247 253 252 251 251 244
331 331 329 325 320 316 311 305 297 288 286 290 292 292 293 293 295 293 289 286 282 281 282 282 278 267 258 255 253 249 246 243 243 247 248 248 249 247
329 329 327 323 317 313 310 306 299 292 286 292 288 292 291 293 293 292 292 287 284 279 277 277 277 275 269 258 254 250 243 246 244 244 245 247 246 245
326 325 324 320 315 311 307 303 298 295 289 291 295 293 291 289 290 291 291 290 286 281 277 273 272 272 271 268 258 252 249 244 249 249 248 248 247 245
324 323 321 318 315 312 308 303 298 294 290 287 291 293 291 292 295 290 290 290 290 289 280 274 269 268 268 268 266 258 252 251 248 249 249 248 246 243
321 319 317 315 313 311 308 304 301 297 296 293 292 295 296 295 294 298 301 296 294 289 286 281 274 268 265 264 263 264 260 253 250 249 248 249 247 242
319 317 316 314 313 311 308 304 298 295 295 294 295 298 298 299 295 290 286 285 282 285 295 287 287 281 271 265 262 261 261 261 254 251 249 247 245 243
318 316 315 315 314 309 304 297 293 295 295 291 291 293 296 296 295 293 289 290 291 286 288 277 267 267 274 270 268 262 257 257 257 252 250 248 247 243
315 316 316 316 314 310 305 300 296 295 291 291 288 288 291 292 292 291 291 289 289 292 291 286 287 283 284 276 271 271 266 260 257 256 252 248 247 246
315 315 314 315 313 307 307 309 309 302 297 289 287 292 289 292 291 294 295 295 292 292 290 282 289 286 290 284 282 276 269 265 259 257 254 251 245 244
314 315 314 315 313 313 307 303 302 302 306 303 291 286 285 283 282 286 285 286 286 286 287 284 289 291 294 290 285 267 267 268 265 257 255 251 249 242
311 314 314 307 308 309 305 305 303 305 307 308 302 300 299 295 285 276 278 279 281 285 287 281 289 296 302 297 307 294 279 279 277 266 255 251 249 244
310 309 309 311 311 307 305 296 293 299 298 294 291 290 289 289 287 287 283 278 280 278 284 284 288 289 280 284 290 288 271 265 272 275 261 252 242 239
306 307 309 308 310 313 312 309 305 299 293 296 296 298 299 297 292 287 283 277 274 275 282 280 279 279 278 281 283 287 281 269 263 264 264 270 266 247
305 300 303 315 317 320 320 316 313 311 307 303 299 297 297 297 297 297 296 291 284 281 284 281 276 278 277 275 279 280 282 279 255 267 260 268 261 256
304 304 312 316 321 324 327 329 328 325 318 311 305 303 303 303 303 305 301 299 293 292 292 293 293 291 281 277 276 276 276 270 264 262 252 259 258 251
295 305 312 318 323 328 333 337 340 338 332 323 315 313 314 313 313 315 307 302 293 293 300 305 305 294 284 280 274 273 272 266 257 256 257 251 250 250
296 305 312 318 322 328 332 336 340 342 340 333 329 322 319 319 318 318 314 305 296 296 298 304 306 299 289 285 274 270 269 259 260 245 251 248 237 251
292 302 309 315 321 325 328 332 335 339 339 341 338 334 329 326 323 317 317 309 303 301 306 307 298 292 282 273 303 274 268 265 245 243 252 245 250 249
291 297 304 311 315 319 323 327 329 334 338 340 340 341 336 328 325 322 319 313 309 306 306 310 304 299 288 279 289 297 281 254 253 248 249 242 240 245
290 294 300 305 309 313 318 321 322 329 334 337 341 342 338 327 327 324 320 318 317 314 308 304 307 310 301 304 281 291 286 248 257 254 242 246 247 245
288 293 298 302 306 310 313 316 318 323 331 334 338 342 341 333 331 328 325 322 320 318 314 312 312 307 304 305 292 283 253 275 261 242 239 239 231 232
286 291 296 300 304 306 310 311 314 320 326 331 337 340 341 340 336 331 329 327 325 324 323 318 317 310 309 310 296 292 294 287 269 248 242 235 236 243
Wind_Speed_850mb
50 57 62 62 60 57 55 53 46 60 70 58 54 42 64 83 92 84 77 71 68 63 59 62 71 72 72 69 67 74 76 79 72 67 63 59 57 56
52 57 62 64 66 65 61 58 53 50 69 58 81 83 87 93 97 94 88 83 77 74 69 64 62 70 75 75 71 69 72 78 76 71 63 64 61 59
55 59 62 63 65 67 67 65 60 49 61 87 68 77 89 89 90 89 92 89 87 82 78 75 72 66 68 77 78 74 70 81 79 76 70 67 67 62
61 65 67 67 68 68 68 68 65 58 58 79 82 65 65 78 85 84 86 86 88 86 82 80 81 77 71 67 77 82 80 79 82 81 78 76 71 69
64 67 70 71 72 69 68 69 66 63 58 65 91 69 66 64 77 78 80 83 82 88 84 83 81 83 81 76 71 76 86 88 83 83 85 85 80 77
65 68 70 70 72 74 74 68 62 58 56 62 75 78 64 58 56 64 74 59 63 57 63 78 80 78 82 83 81 76 73 87 92 89 84 83 84 83
66 68 70 72 74 71 65 61 55 58 59 65 73 74 66 58 54 61 70 73 75 65 59 49 57 61 60 74 80 80 77 73 82 93 94 88 83 84
68 70 71 70 67 65 60 50 50 57 63 67 72 70 68 62 60 61 66 72 84 59 54 71 54 64 62 69 69 71 69 69 71 79 88 95 93 86
67 69 71 66 64 59 55 51 49 48 51 59 70 69 71 59 58 62 62 64 73 70 63 86 64 75 83 92 89 82 82 79 73 67 75 87 92 94
66 67 67 64 58 53 55 61 68 63 63 61 63 67 65 65 63 69 74 75 74 72 62 87 66 74 65 63 62 70 86 87 80 79 74 73 83 91
65 65 62 59 53 55 65 72 73 77 80 80 72 71 71 70 68 72 79 74 77 72 63 68 71 75 68 75 74 72 64 70 82 86 83 77 76 83
60 59 52 52 55 58 64 73 84 66 60 70 74 70 65 59 59 60 64 76 79 80 60 50 53 62 73 62 33 40 55 59 61 68 79 85 76 73
52 52 51 52 55 61 63 73 80 77 74 73 72 73 70 64 67 65 62 65 75 83 73 60 66 65 67 91 82 64 63 52 56 54 54 72 85 75
49 50 52 53 66 65 67 65 60 60 65 62 62 62 56 53 51 53 55 61 70 82 80 69 77 75 79 90 92 73 73 61 66 81 86 78 61 75
44 48 62 70 65 63 60 59 60 55 50 49 50 54 53 58 60 64 64 60 63 66 68 64 66 70 81 91 93 85 79 73 74 66 79 66 70 71
53 68 67 60 57 56 54 51 50 48 46 45 44 49 53 55 57 58 56 55 54 58 52 59 64 66 77 83 85 89 81 75 60 65 73 70 66 68
55 61 56 55 56 53 50 49 49 49 46 43 45 49 50 51 53 52 50 49 55 63 68 68 69 66 69 74 88 86 87 78 79 65 68 67 71 69
57 53 51 50 51 52 52 53 51 51 51 52 50 47 49 51 53 54 48 53 56 63 72 74 72 68 71 76 71 83 87 85 75 66 64 72 70 63
44 44 46 46 48 49 50 52 54 53 54 54 56 54 50 52 54 54 54 50 57 60 68 69 64 63 66 69 81 59 71 61 62 78 67 75 85 70
39 41 44 44 45 48 49 51 52 52 53 56 59 59 52 53 58 59 59 56 54 60 69 67 66 64 64 71 77 74 55 50 55 67 65 72 73 63
40 41 42 45 47 48 48 51 52 51 52 56 60 63 54 53 62 59 59 59 58 60 61 65 69 64 64 64 63 63 44 43 43 54 63 63 60 56
44 46 47 48 49 50 49 51 52 49 51 53 59 63 59 58 60 59 58 59 59 59 62 62 58 56 53 44 43 37 37 29 39 50 55 57 42 39
46 48 50 50 49 50 48 51 51 48 48 51 58 62 61 64 61 57 55 54 54 56 54 55 51 39 36 35 34 32 25 17 18 25 36 39 42 39
Wind_Direction_850mb
333 332 330 327 322 316 310 304 298 299 299 299 292 292 289 290 292 294 291 289 288 287 285 275 265 259 257 255 253 252 244 246 247 253 252 251 251 244
331 331 329 325 320 316 311 305 297 288 286 290 292 292 293 293 295 293 289 286 282 281 282 282 278 267 258 255 253 249 246 243 243 247 248 248 249 247
329 329 327 323 317 313 310 306 299 292 286 292 288 292 291 293 293 292 292 287 284 279 277 277 277 275 269 258 254 250 243 246 244 244 245 247 246 245
326 325 324 320 315 311 307 303 298 295 289 291 295 293 291 289 290 291 291 290 286 281 277 273 272 272 271 268 258 252 249 244 249 249 248 248 247 245
324 323 321 318 315 312 308 303 298 294 290 287 291 293 291 292 295 290 290 290 290 289 280 274 269 268 268 268 266 258 252 251 248 249 249 248 246 243
321 319 317 315 313 311 308 304 301 297 296 293 292 295 296 295 294 298 301 296 294 289 286 281 274 268 265 264 263 264 260 253 250 249 248 249 247 242
319 317 316 314 313 311 308 304 298 295 295 294 295 298 298 299 295 290 286 285 282 285 295 287 287 281 271 265 262 261 261 261 254 251 249 247 245 243
318 316 315 315 314 309 304 297 293 295 295 291 291 293 296 296 295 293 289 290 291 286 288 277 267 267 274 270 268 262 257 257 257 252 250 248 247 243
315 316 316 316 314 310 305 300 296 295 291 291 288 288 291 292 292 291 291 289 289 292 291 286 287 283 284 276 271 271 266 260 257 256 252 248 247 246
315 315 314 315 313 307 307 309 309 302 297 289 287 292 289 292 291 294 295 295 292 292 290 282 289 286 290 284 282 276 269 265 259 257 254 251 245 244
314 315 314 315 313 313 307 303 302 302 306 303 291 286 285 283 282 286 285 286 286 286 287 284 289 291 294 290 285 267 267 268 265 257 255 251 249 242
311 314 314 307 308 309 305 305 303 305 307 308 302 300 299 295 285 276 278 279 281 285 287 281 289 296 302 297 307 294 279 279 277 266 255 251 249 244
310 309 309 311 311 307 305 296 293 299 298 294 291 290 289 289 287 287 283 278 280 278 284 284 288 289 280 284 290 288 271 265 272 275 261 252 242 239
306 307 309 308 310 313 312 309 305 299 293 296 296 298 299 297 292 287 283 277 274 275 282 280 279 279 278 281 283 287 281 269 263 264 264 270 266 247
305 300 303 315 317 320 320 316 313 311 307 303 299 297 297 297 297 297 296 291 284 281 284 281 276 278 277 275 279 280 282 279 255 267 260 268 261 256
304 304 312 316 321 324 327 329 328 325 318 311 305 303 303 303 303 305 301 299 293 292 292 293 293 291 281 277 276 276 276 270 264 262 252 259 258 251
295 305 312 318 323 328 333 337 340 338 332 323 315 313 314 313 313 315 307 302 293 293 300 305 305 294 284 280 274 273 272 266 257 256 257 251 250 250
296 305 312 318 322 328 332 336 340 342 340 333 329 322 319 319 318 318 314 305 296 296 298 304 306 299 289 285 274 270 269 259 260 245 251 248 237 251
292 302 309 315 321 325 328 332 335 339 339 341 338 334 329 326 323 317 317 309 303 301 306 307 298 292 282 273 303 274 268 265 245 243 252 245 250 249
291 297 304 311 315 319 323 327 329 334 338 340 340 341 336 328 325 322 319 313 309 306 306 310 304 299 288 279 289 297 281 254 253 248 249 242 240 245
290 294 300 305 309 313 318 321 322 329 334 337 341 342 338 327 327 324 320 318 317 314 308 304 307 310 301 304 281 291 286 248 257 254 242 246 247 245
288 293 298 302 306 310 313 316 318 323 331 334 338 342 341 333 331 328 325 322 320 318 314 312 312 307 304 305 292 283 253 275 261 242 239 239 231 232
286 291 296 300 304 306 310 311 314 320 326 331 337 340 341 340 336 331 329 327 325 324 323 318 317 310 309 310 296 292 294 287 269 248 242 235 236 243